Location: Bratislava
(48.1500°N, 17.1167°E)
Time: 16:52:30
(UTC+01:00)

ISS - Pass Details

Date: 24 January 2020
Orbit: 415 x 422 km, 51.6° (Epoch: 26 February)

Event Time Altitude Azimuth Distance (km) Brightness Sun altitude
Rises 18:20:20 0° 242° (WSW) 2,372 1.5 -16.9°
Reaches altitude 10° 18:22:26 10° 241° (WSW) 1,509 0.2 -17.3°
Maximum altitude 18:25:49 79° 155° (SSE) 436 -3.8 -17.8°
Enters shadow 18:26:24 58° 83° (E) 501 -3.8 -17.9°
